CAPE
1467 1385 1015 731 25 9 18 30 28 67 54 118 75 42 48 57 8 27 10 121 126 213 282 643 669 618 721 902 792 784 863 933 972 1011 846 761 934 1175 1608 1855 1880 1852 1849 1866 1808 1738 1761 1764 1782
1085 757 771 585 24 0 0 15 102 68 137 157 176 141 93 37 75 60 99 198 153 157 316 759 824 798 879 894 753 869 963 1199 1428 1244 953 1057 1339 1501 1928 1825 1648 1698 1877 1744 1736 1736 1718 1630 1644
738 562 874 18 0 0 0 15 78 237 291 155 133 133 45 48 71 88 135 335 490 508 546 1055 915 1255 1169 940 1008 1233 1516 1475 1386 1105 1162 1546 1898 2015 1821 1643 1487 1691 1711 1697 1637 1544 1496 1554 1633
588 632 115 0 0 0 0 33 346 351 432 305 82 66 155 104 84 136 324 440 606 723 825 1216 1292 1383 1406 1390 1346 1316 1401 1339 1443 1429 1630 1877 1795 1610 1538 1422 1629 1684 1672 1719 1709 1725 1746 1722 1570
261 53 0 0 0 154 0 116 400 406 468 240 167 77 93 474 242 235 447 569 697 892 1140 1215 1089 1174 1285 1525 1594 1380 1359 1473 1587 1654 1744 1755 1783 1754 1707 1843 1860 1794 1749 1738 1723 1669 1814 1859 1806
65 0 0 0 0 135 42 175 570 632 472 193 111 55 241 531 168 281 406 514 529 769 1081 1143 1203 1483 1489 1414 1625 1516 1231 1407 1342 1500 1647 1684 1776 1817 1769 1760 1667 1769 1816 1755 1728 1918 1863 1871 1731
34 0 0 0 35 154 75 209 571 389 351 218 164 136 295 371 177 371 420 603 717 872 1012 1340 1366 1709 1614 1469 1439 1473 1428 1387 1245 1278 1494 1595 1732 1697 1659 1651 1735 1846 1726 1911 2094 1820 1403 1495 1309
12 0 0 0 17 37 185 476 678 330 344 360 297 32 115 416 269 399 460 624 792 881 1229 1520 1713 1600 1223 1313 1719 1797 1871 1789 1738 1592 1652 1744 1850 1779 1638 1761 1530 1634 1671 1666 1871 1472 1155 1222 1165
0 1 0 0 12 42 355 396 733 652 338 344 392 330 234 590 365 340 465 686 974 1145 1291 1446 1512 1532 1686 1629 1435 1577 1567 1540 1505 1521 1705 1401 1559 1513 1731 1289 1069 1259 1460 1246 1532 1412 1256 1168 1185
30 0 0 0 7 16 217 556 701 649 356 351 439 577 663 713 409 323 354 521 694 862 1147 1406 1434 1311 1416 1214 1747 1608 1440 1218 1331 1549 1859 1755 1814 1721 1377 822 1268 1196 896 1288 1162 1162 1276 1356 1404
7 0 0 0 0 117 156 486 673 431 173 305 363 537 721 681 599 416 348 368 499 721 913 1216 1622 1660 1627 1775 1820 2140 1815 1619 1471 1758 1852 1962 1655 1445 1622 1704 1350 1270 1319 1553 1384 1394 1485 1536 1638
0 0 0 0 0 89 149 434 312 274 65 266 549 632 723 679 609 463 430 478 524 668 848 1100 1296 1680 1752 1626 1459 1580 1418 1534 1299 1263 1694 1589 1213 1308 1583 1481 1357 1461 1435 1638 1508 1562 1624 1543 1411
0 0 0 0 0 76 236 129 267 208 149 494 645 721 676 647 668 705 611 538 707 713 901 1343 1478 1491 1739 1757 1487 1222 1315 1131 1130 1369 1352 1245 1123 872 1204 1271 1073 1190 1408 1456 1306 1297 1445 1474 1131
0 0 0 0 0 23 114 167 142 162 385 529 647 614 671 754 859 930 734 722 762 754 833 1273 1541 1699 1823 1642 1660 1659 1575 1567 1396 1471 1277 1221 956 790 915 923 1027 1135 1420 1506 1307 1272 1260 1064 1030
0 0 6 3 0 0 136 47 61 313 526 373 450 597 663 786 880 843 703 759 792 660 703 804 1118 1446 1687 1656 1540 1617 1676 1260 1351 1409 1213 1034 1410 1244 1225 916 832 1089 1420 1332 1283 1200 1092 873 683
0 0 0 7 0 21 14 7 153 417 444 299 306 492 521 661 751 898 876 972 1054 821 756 862 757 1010 1326 1515 1613 1623 1813 1722 1396 1222 1193 1356 1402 1060 1032 783 874 1003 1253 1138 1058 1117 868 721 453
0 0 1 10 0 5 12 25 145 350 436 433 340 302 458 615 832 1004 1090 1149 1198 1108 1025 1112 1229 1298 1563 1601 1710 1775 1560 1333 1193 1731 1705 1195 1330 1310 1168 995 928 1141 1122 893 1053 889 711 185 62
0 0 2 29 17 39 29 79 190 367 438 449 506 501 554 733 902 1113 1161 1143 1203 1218 1333 1366 1404 1525 1634 1762 1764 1686 1670 1713 1665 1392 1426 1336 1085 1121 1235 920 1074 1230 853 833 681 578 533 297 350
0 1 35 50 44 38 59 54 158 263 325 360 561 692 599 591 724 889 1014 1076 1137 1210 1216 1258 1401 1445 1651 1628 1593 1500 1438 1804 1569 1062 1231 1431 1312 1438 1164 1119 1197 937 708 622 646 450 313 261 433
0 0 35 19 42 48 44 49 88 226 230 267 329 511 608 599 754 895 921 838 937 1083 1056 1221 1334 1413 1537 1751 1741 1656 1785 1839 1814 1835 1989 1833 1703 1570 1549 1298 915 812 621 415 259 329 171 139 477
0 0 16 12 21 40 51 9 21 114 266 239 230 258 302 354 463 546 642 725 799 883 1028 1129 1224 1319 1502 1701 1785 1666 1575 1509 1563 1659 1570 1629 1662 1630 1433 985 719 513 168 25 254 197 217 74 274
0 0 35 39 27 0 35 2 30 86 118 226 234 221 205 202 268 289 326 538 743 730 840 963 1175 1260 1437 1641 1511 1407 1338 1509 1560 1203 1349 1674 1499 1327 1129 702 122 66 77 133 144 107 195 127 13
0 0 0 26 46 9 9 1 0 14 42 76 185 268 207 164 174 183 232 350 543 616 663 782 1051 1142 1290 1470 1461 1479 1558 1681 1597 857 1053 1558 1076 953 486 42 1 3 94 148 13 90 72 102 13
0 0 0 0 5 0 0 0 0 0 29 65 127 201 206 163 162 189 208 224 370 527 564 666 778 847 959 1185 1392 1441 1487 1668 1290 680 443 933 742 376 66 1 57 183 214 91 22 77 58 40 103
0 0 0 0 0 0 0 0 0 0 9 30 73 109 139 144 135 156 236 254 368 446 565 609 701 762 788 993 1201 1342 1410 1706 1356 717 489 389 400 309 0 0 68 208 205 15 18 28 38 14 30
0 0 0 0 0 0 0 0 0 0 14 33 86 110 126 132 149 188 285 307 383 439 538 604 637 754 769 803 974 1261 1500 1732 1450 898 539 257 361 226 24 36 87 174 10 0 3 17 39 23 5
0 0 0 0 0 0 0 0 0 0 0 0 13 62 91 159 219 228 371 378 470 508 539 627 687 750 783 852 1074 1287 1525 1609 1321 858 592 205 283 86 58 48 90 77 0 0 6 0 3 31 89
0 0 0 0 0 0 0 0 0 0 0 0 0 8 59 140 262 394 543 524 554 678 719 759 805 810 804 932 1131 1249 1415 1292 1306 784 329 34 165 50 63 55 84 1 0 0 13 0 0 0 41
0 0 0 0 0 0 0 0 0 0 0 0 0 0 12 98 146 314 674 671 630 731 817 867 924 969 997 873 1054 1187 1234 1133 744 547 217 17 26 34 38 46 30 39 17 1 8 26 19 3 90
0 0 0 0 0 0 0 0 0 0 0 0 0 0 0 7 70 353 705 820 776 838 866 915 1027 1098 1115 1028 1075 1166 869 621 659 343 7 2 4 0 23 36 34 51 33 62 51 68 18 66 46
CIN
-167 -155 -182 -169 -31 -19 -28 -17 -39 -37 -47 -50 -62 -48 -90 -108 -85 -41 -35 -16 -15 -11 -6 -2 -3 -9 -9 -0 -2 -2 -12 -6 -25 -9 -17 -37 -28 -24 -12 -7 -21 -2 -0 -0 -4 -12 -2 -5 -1
-247 -259 -187 -80 -8 -0 -0 -34 -77 -31 -55 -50 -50 -55 -84 -126 -122 -126 -31 -10 -22 -35 -11 -0 -1 -7 -4 -3 -13 -12 -7 -0 -0 -9 -16 -34 -11 -22 -0 -9 -15 -8 -0 -5 -4 -1 -1 -8 -3
-310 -263 -84 -3 -0 -0 -0 -46 -49 -55 -46 -42 -60 -75 -86 -113 -117 -92 -45 -10 -3 -14 -8 -0 -1 -0 -0 -4 -2 -0 -0 -0 -1 -14 -43 -7 -0 -0 -11 -19 -24 -9 -5 -2 -2 -2 -7 -5 -5
-274 -199 -162 -0 -0 -0 -0 -38 -45 -54 -45 -62 -91 -111 -80 -80 -103 -96 -36 -19 -3 -1 -0 -0 -0 -0 -0 -0 -0 -0 -0 -0 -1 -4 -0 -0 -2 -21 -24 -29 -15 -7 -3 -0 -0 -0 -0 -0 -3
-332 -210 -0 -0 -0 -36 -0 -53 -32 -42 -63 -100 -116 -117 -131 -19 -84 -84 -29 -13 -5 -0 -0 -0 -1 -1 -1 -1 -0 -0 -0 -1 -0 -0 -0 -2 -11 -15 -13 -3 -1 -1 -1 -1 -0 -2 -0 -0 -0
-190 -0 -0 -0 -0 -88 -87 -68 -35 -43 -76 -134 -114 -156 -106 -32 -106 -81 -44 -21 -14 -5 -0 -0 -0 -0 -0 -0 -0 -0 -12 -7 -13 -14 -7 -11 -12 -9 -7 -4 -6 -2 -0 -0 -0 -0 -1 -1 -3
-156 -0 -0 -0 -45 -86 -101 -109 -37 -74 -100 -116 -132 -123 -122 -78 -125 -75 -54 -25 -10 -1 -0 -0 -0 -0 -0 -0 -0 -0 -8 -15 -29 -28 -24 -23 -15 -14 -15 -12 -7 -3 -4 -1 -0 -1 -8 -8 -13
-203 -11 -0 -0 -29 -47 -114 -78 -48 -75 -102 -125 -94 -50 -195 -114 -131 -68 -52 -23 -6 -5 -0 -0 -0 -0 -0 -1 -0 -0 -0 -4 -3 -12 -15 -8 -6 -10 -11 -6 -10 -7 -8 -4 -2 -4 -19 -13 -16
-0 -20 -8 -0 -30 -47 -113 -99 -85 -91 -118 -119 -100 -106 -157 -127 -144 -121 -67 -22 -0 -0 -0 -0 -0 -0 -0 -0 -0 -2 -9 -10 -14 -13 -5 -13 -1 -4 -4 -22 -38 -26 -13 -13 -7 -8 -9 -16 -16
-114 -2 -0 -0 -52 -47 -87 -90 -108 -112 -132 -134 -118 -136 -126 -114 -165 -180 -145 -92 -42 -16 -4 -0 -1 -3 -1 -10 -0 -5 -5 -12 -15 -6 -0 -1 -3 -7 -17 -48 -33 -35 -46 -21 -15 -17 -14 -9 -0
-113 -0 -0 -0 -0 -70 -72 -98 -113 -129 -147 -148 -153 -177 -147 -147 -149 -166 -169 -147 -100 -43 -18 -10 -0 -0 -1 -2 -0 -0 -1 -6 -8 -3 -2 -0 -6 -17 -8 -4 -10 -17 -17 -1 -8 -7 -4 -12 -10
-0 -0 -0 -0 -12 -83 -74 -92 -133 -119 -118 -148 -144 -158 -162 -165 -170 -183 -161 -141 -123 -68 -37 -27 -21 -3 -2 -8 -11 -6 -14 -12 -14 -13 -9 -13 -19 -23 -17 -7 -17 -12 -9 -9 -13 -4 -10 -8 -12
-0 -0 -0 -0 -0 -97 -108 -83 -87 -113 -160 -162 -187 -180 -176 -171 -159 -134 -132 -138 -104 -93 -51 -26 -21 -16 -2 -4 -10 -21 -18 -23 -25 -16 -24 -28 -29 -24 -15 -23 -20 -13 -10 -5 -7 -9 -10 -6 -12
-0 -0 -0 -0 -0 -115 -97 -116 -98 -125 -185 -198 -222 -225 -187 -164 -134 -103 -132 -124 -113 -102 -77 -35 -24 -10 -3 -10 -14 -12 -9 -10 -12 -15 -22 -32 -32 -25 -11 -13 -10 -10 -10 -5 -14 -9 -5 -10 -16
-0 -0 -140 -161 -0 -3 -128 -119 -89 -129 -166 -197 -222 -230 -198 -165 -132 -136 -141 -124 -115 -114 -88 -80 -54 -26 -13 -15 -20 -13 -11 -14 -15 -18 -20 -20 -24 -13 -6 -15 -14 -8 -11 -16 -9 -7 -4 -4 -10
-0 -0 -0 -142 -0 -216 -63 -49 -117 -156 -141 -164 -212 -236 -222 -184 -150 -121 -121 -98 -77 -97 -103 -77 -69 -52 -41 -28 -20 -15 -13 -17 -22 -9 -10 -10 -21 -3 -8 -16 -11 -11 -15 -13 -9 -1 -3 -1 -24
-0 -0 -11 -87 -0 -82 -116 -63 -151 -176 -142 -144 -199 -210 -206 -175 -140 -120 -105 -89 -67 -75 -72 -56 -47 -39 -38 -36 -22 -15 -8 -10 -10 -19 -21 -7 -13 -12 -10 -17 -11 -19 -16 -12 -7 -2 -11 -130 -210
-0 -0 -21 -39 -166 -183 -143 -114 -178 -203 -162 -137 -157 -174 -172 -164 -154 -111 -89 -73 -60 -58 -53 -44 -37 -38 -40 -28 -19 -11 -13 -13 -10 -13 -12 -4 -7 -5 -12 -13 -19 -20 -14 -12 -13 -14 -21 -75 -63
-0 -5 -38 -89 -174 -140 -154 -138 -157 -193 -195 -185 -159 -156 -157 -159 -130 -92 -78 -64 -52 -53 -60 -48 -43 -40 -35 -26 -13 -10 -6 -5 -7 -17 -6 -4 -7 -10 -10 -7 -13 -19 -8 -6 -4 -35 -72 -81 -34
-0 -0 -42 -101 -143 -110 -128 -136 -174 -177 -225 -222 -210 -187 -170 -155 -116 -96 -91 -104 -94 -65 -65 -58 -48 -39 -39 -22 -17 -10 -10 -5 -1 -1 -4 -5 -7 -12 -9 -11 -13 -13 -6 -43 -86 -76 -123 -136 -44
-0 -5 -75 -21 -136 -145 -87 -80 -134 -196 -228 -257 -278 -252 -234 -214 -190 -166 -153 -143 -124 -118 -90 -68 -58 -49 -42 -35 -21 -20 -16 -15 -9 -5 -6 -8 -9 -10 -9 -18 -17 -28 -133 -141 -83 -100 -106 -195 -97
-0 -0 -86 -73 -52 -0 -98 -26 -71 -141 -178 -256 -278 -331 -305 -302 -265 -216 -220 -186 -164 -158 -127 -96 -67 -57 -57 -48 -37 -34 -16 -1 -1 -19 -7 -3 -11 -11 -16 -31 -156 -187 -164 -119 -110 -137 -87 -144 -259
-0 -0 -0 -74 -36 -37 -95 -19 -0 -170 -143 -157 -259 -274 -300 -282 -300 -276 -258 -228 -186 -168 -177 -139 -93 -94 -89 -71 -59 -47 -27 -3 -16 -86 -56 -15 -49 -49 -84 -228 -7 -228 -116 -102 -262 -138 -161 -138 -256
-0 -0 -0 -0 -59 -0 -0 -0 -0 -0 -76 -75 -160 -305 -326 -303 -289 -271 -248 -230 -209 -194 -194 -178 -172 -167 -168 -134 -97 -85 -70 -44 -66 -121 -144 -69 -84 -139 -237 -54 -193 -120 -89 -135 -244 -146 -160 -185 -124
-0 -0 -0 -0 -0 -0 -0 -0 -0 -0 -69 -84 -75 -189 -251 -273 -286 -280 -260 -267 -252 -241 -228 -235 -219 -207 -225 -188 -154 -130 -112 -77 -95 -147 -164 -169 -161 -181 -0 -0 -207 -119 -92 -268 -250 -206 -145 -211 -157
-0 -0 -0 -0 -0 -0 -0 -0 -0 -0 -72 -177 -144 -165 -235 -265 -273 -280 -272 -246 -252 -277 -261 -237 -236 -220 -240 -229 -207 -158 -122 -94 -115 -163 -193 -231 -205 -217 -267 -295 -216 -138 -196 -0 -244 -130 -95 -118 -179
-0 -0 -0 -0 -0 -0 -0 -0 -0 -0 -0 -0 -150 -165 -192 -248 -276 -291 -276 -293 -260 -266 -261 -274 -264 -253 -257 -255 -209 -177 -135 -115 -139 -185 -226 -274 -254 -290 -298 -287 -242 -211 -0 -0 -160 -18 -150 -131 -86
-0 -0 -0 -0 -0 -0 -0 -0 -0 -0 -0 -0 -0 -100 -138 -211 -272 -298 -281 -298 -253 -253 -258 -283 -283 -249 -261 -265 -233 -206 -176 -178 -161 -214 -267 -368 -281 -328 -301 -291 -243 -23 -0 -0 -161 -0 -0 -0 -128
-0 -0 -0 -0 -0 -0 -0 -0 -0 -0 -0 -0 -0 -0 -112 -205 -266 -270 -329 -310 -267 -251 -297 -291 -282 -250 -249 -284 -267 -240 -237 -205 -211 -288 -286 -381 -374 -351 -342 -300 -272 -225 -193 -101 -210 -134 -101 -96 -64
-0 -0 -0 -0 -0 -0 -0 -0 -0 -0 -0 -0 -0 -0 -0 -210 -276 -312 -327 -332 -309 -288 -294 -299 -278 -271 -265 -294 -284 -275 -322 -274 -279 -295 -41 -324 -396 -24 -309 -272 -234 -198 -178 -128 -106 -71 -81 -45 -94
Wind_Speed
24 24 18 14 13 11 7 15 20 25 21 15 8 9 3 6 12 5 29 29 33 33 34 35 33 33 32 32 33 34 35 35 34 33 31 28 27 24 21 18 6 12 18 14 9 8 7 7 8
24 19 13 10 6 9 5 18 17 20 5 2 3 7 8 9 6 8 27 33 33 33 32 31 31 32 33 33 34 34 34 33 33 32 30 26 24 23 20 14 20 17 17 13 9 9 8 9 9
21 15 11 11 11 10 9 22 11 17 24 19 13 8 11 11 4 13 30 34 31 31 31 31 31 32 32 33 33 33 33 33 32 30 27 25 25 24 21 20 19 16 13 12 10 9 10 10 11
18 14 11 5 10 10 8 25 28 20 17 14 15 7 10 3 19 25 35 34 34 33 32 32 32 31 31 32 32 33 33 32 30 29 28 26 24 18 17 18 18 16 13 12 11 9 12 12 13
17 12 9 13 11 8 7 22 23 14 13 17 22 7 7 13 5 25 32 32 30 32 32 32 31 31 31 31 31 32 31 30 29 28 26 24 21 19 19 17 16 15 13 12 10 9 10 12 13
13 12 10 11 10 7 5 26 9 11 11 15 15 17 3 19 25 28 30 30 28 29 30 30 31 30 30 30 30 30 29 28 27 25 24 22 21 19 17 15 13 13 13 11 10 9 9 10 11
16 13 8 5 6 6 15 25 14 9 10 16 26 16 2 25 24 25 26 27 25 24 26 28 30 30 30 29 29 29 27 26 25 24 23 21 20 18 16 14 13 12 11 11 10 9 9 10 11
17 16 21 21 22 16 21 23 22 23 14 27 27 24 23 30 26 23 25 25 24 25 29 30 30 29 29 28 28 27 26 25 24 22 21 20 18 17 15 13 12 11 11 10 10 10 15 19 19
17 15 18 17 16 11 23 22 21 20 23 22 25 23 26 31 28 26 28 28 28 29 29 29 29 29 28 27 26 25 24 23 22 20 19 18 17 15 14 13 11 10 10 10 9 13 16 18 18
21 18 18 15 17 16 20 22 23 19 25 23 23 25 27 31 30 28 29 29 29 29 30 29 29 28 27 25 24 23 22 21 20 19 18 17 16 15 13 12 11 10 12 11 12 13 15 15 17
13 18 17 16 17 18 19 22 23 22 25 24 26 27 30 31 30 30 30 29 30 30 29 29 28 28 26 24 23 22 21 20 20 19 18 17 16 15 13 12 12 11 11 11 12 12 11 11 12
15 20 19 18 18 18 19 23 22 23 21 23 25 28 30 30 31 32 31 31 31 30 29 28 28 27 26 24 22 21 20 19 19 19 18 17 16 15 14 13 12 11 10 10 11 10 9 9 8
18 23 20 21 17 20 19 23 23 24 21 22 25 29 29 31 32 31 30 30 30 30 29 28 27 26 25 24 22 20 20 19 19 18 18 17 17 15 14 12 12 10 10 10 9 9 8 7 7
12 17 14 18 17 16 19 24 24 23 23 24 26 30 30 31 32 32 31 31 30 29 28 27 27 25 24 23 22 20 20 19 18 18 18 17 17 16 15 13 11 9 10 10 8 7 6 6 6
9 14 9 5 9 6 15 15 25 23 25 26 27 30 30 30 31 31 31 30 29 29 28 27 26 24 23 22 22 21 20 18 17 17 19 17 16 14 14 14 12 9 9 8 7 6 7 6 6
17 10 2 6 8 3 24 22 26 25 26 26 27 29 29 29 30 30 30 30 28 28 27 26 25 23 22 21 21 22 20 18 17 18 18 17 15 14 13 12 11 8 8 8 8 8 8 9 9
22 24 27 3 26 8 28 21 24 25 25 26 27 28 29 29 28 28 28 28 27 26 24 24 22 21 20 19 20 20 20 18 17 15 15 13 12 10 9 8 7 7 7 9 10 11 10 10 9
20 26 27 21 11 23 29 22 17 25 26 26 25 27 28 29 29 26 27 26 25 24 24 22 20 21 19 16 18 19 20 18 17 15 13 11 11 9 7 6 7 9 11 13 14 13 13 13 13
32 33 33 22 12 15 30 28 24 23 26 26 26 26 27 28 27 26 25 25 23 23 23 23 22 22 18 19 18 18 16 15 13 11 11 9 6 6 6 8 10 10 11 13 15 16 15 15 17
25 32 23 20 11 17 21 31 27 26 26 25 24 25 25 25 25 27 27 25 25 24 24 23 23 22 23 20 16 12 9 10 9 6 6 6 6 6 8 9 9 10 12 13 13 14 15 16 17
13 23 17 14 16 17 15 32 30 29 23 24 24 23 23 22 20 23 26 26 24 25 24 23 24 22 20 15 6 5 8 10 10 8 8 7 8 8 9 10 11 11 12 13 14 15 15 16 16
13 19 18 14 10 35 22 31 28 22 11 17 23 21 21 19 17 18 22 23 24 23 22 21 21 18 14 12 9 8 6 6 8 9 9 9 9 9 10 11 12 12 13 14 16 15 14 14 14
24 18 15 16 15 26 29 32 33 8 15 13 15 19 18 17 19 20 21 21 22 20 17 16 15 13 12 10 8 6 5 4 7 9 9 9 9 9 10 10 12 12 13 14 14 14 14 14 14
23 16 17 19 21 33 20 10 33 10 10 19 14 18 20 18 20 21 18 15 16 15 13 12 12 15 12 10 9 8 5 5 5 6 7 7 8 8 8 9 10 11 12 13 13 12 12 12 12
27 22 24 27 28 38 26 31 35 18 10 18 13 16 20 20 21 21 20 20 17 17 14 12 13 16 13 12 10 12 12 8 6 5 6 6 6 6 6 7 8 9 10 12 12 12 12 11 11
27 24 28 28 30 35 26 30 28 34 36 29 9 5 12 23 22 22 22 22 20 17 15 13 14 17 14 18 17 14 12 8 7 4 3 3 3 4 7 7 7 9 10 10 11 11 11 11 11
31 38 29 34 27 32 32 32 34 31 29 13 8 6 13 20 22 24 23 22 22 21 23 21 20 21 22 21 17 15 12 9 6 3 1 2 2 4 6 6 6 7 8 9 10 11 11 12 11
35 29 36 37 45 46 34 32 26 21 23 14 8 8 13 17 16 20 23 22 23 26 26 25 24 25 26 25 23 21 18 14 7 4 3 2 2 3 4 5 5 7 7 10 11 12 11 12 12
36 37 35 35 40 46 48 46 33 34 33 28 28 8 9 12 16 20 22 21 26 26 27 29 29 27 25 25 23 20 16 13 12 6 5 4 2 4 3 4 5 7 8 8 10 12 13 12 13
47 46 43 46 42 39 43 42 20 31 32 29 33 28 21 9 15 18 17 16 21 25 28 28 27 26 25 22 20 21 18 19 14 13 8 7 5 6 7 7 10 11 9 11 10 13 15 13 14
Wind_Direction
123 132 154 168 190 202 224 183 165 138 145 183 208 209 295 234 204 21 160 159 147 141 140 135 140 139 141 142 139 134 127 127 134 132 143 146 145 149 152 158 248 174 144 165 198 214 231 259 270
134 146 172 201 311 6 291 172 69 167 207 15 275 216 249 242 220 114 152 142 151 144 146 147 144 136 133 133 133 131 134 131 137 136 143 153 152 155 159 177 140 146 145 165 218 230 248 265 271
136 159 186 182 176 3 8 155 94 177 149 175 203 248 207 168 108 131 149 143 155 155 151 148 143 133 126 129 129 126 121 125 133 143 150 152 148 141 142 141 138 149 165 175 194 235 269 267 269
151 166 196 243 355 358 351 104 109 178 177 195 47 194 193 62 182 173 137 139 137 146 146 141 133 120 119 126 122 128 123 123 134 141 134 139 140 168 171 155 142 145 156 166 177 219 271 273 275
157 199 338 12 352 322 8 97 170 210 212 186 157 154 75 203 185 101 120 124 117 125 137 131 129 125 122 123 121 129 128 128 131 133 132 140 158 155 150 149 139 135 144 163 190 223 241 257 272
204 191 349 1 357 338 324 114 208 238 179 99 70 76 197 103 105 113 119 118 112 117 127 127 132 129 125 125 127 129 137 141 144 140 138 145 147 145 151 159 170 151 138 148 192 212 220 224 230
190 197 341 270 321 266 181 145 201 226 223 198 112 78 327 117 113 112 114 115 112 108 113 125 137 137 129 124 130 135 139 140 138 136 141 137 142 150 158 157 173 174 152 143 157 160 179 180 158
195 191 99 132 105 75 161 146 148 139 201 127 133 163 117 136 120 111 114 115 113 116 135 139 144 137 134 136 139 140 144 145 145 144 139 140 139 146 152 156 149 178 188 170 150 133 79 41 16
206 192 108 97 78 34 123 153 156 164 112 165 158 152 126 131 124 118 124 127 131 140 144 144 143 148 145 146 148 147 148 148 146 147 145 148 151 150 147 151 187 169 175 163 158 94 68 40 34
162 129 115 170 128 95 112 127 124 176 132 159 167 127 120 130 131 128 134 135 142 143 151 155 157 153 152 154 154 156 156 154 154 155 157 158 156 155 157 157 174 163 129 133 111 89 60 66 41
282 208 222 229 126 114 113 131 145 162 154 156 144 127 130 135 140 142 144 146 150 154 156 160 161 163 161 159 156 158 155 157 163 167 164 165 164 164 165 157 157 152 135 138 130 117 114 103 80
161 230 202 217 136 120 126 133 149 151 163 147 140 134 135 140 147 152 152 156 159 165 166 168 168 167 168 166 159 159 160 162 170 172 174 174 175 172 170 166 164 160 148 135 132 135 135 133 136
182 238 211 204 133 136 121 146 157 165 171 142 134 140 143 150 159 162 163 166 167 169 170 171 172 171 169 168 166 165 168 172 174 177 177 179 182 185 175 172 168 161 144 147 153 160 154 169 174
313 306 320 173 119 112 118 158 166 165 156 136 138 147 149 155 163 169 172 174 174 173 171 171 172 171 169 170 170 171 175 175 173 179 181 179 189 191 194 189 183 160 164 156 147 136 149 146 151
320 308 340 23 81 282 105 159 175 167 150 145 145 152 156 163 168 171 172 174 176 177 176 175 173 171 170 171 174 180 181 179 177 178 187 183 186 188 191 192 192 157 132 128 123 116 103 113 107
272 312 69 290 92 286 148 168 176 159 155 155 152 158 162 166 169 174 176 178 176 176 175 174 173 170 169 170 175 182 181 179 184 192 200 194 192 183 183 180 177 140 90 90 85 77 73 62 60
247 181 181 280 210 265 172 205 180 160 163 162 162 163 168 169 172 174 175 176 174 172 170 169 166 167 165 167 176 184 189 185 190 181 181 176 169 157 148 155 144 88 84 59 51 52 50 40 48
163 234 222 233 244 231 187 220 223 171 171 170 166 170 172 175 178 173 176 177 175 174 174 170 166 168 163 157 169 180 189 189 187 187 187 177 173 161 148 120 68 55 32 20 21 22 24 26 28
226 225 183 242 260 257 206 219 236 186 183 177 175 174 176 180 178 178 177 179 177 176 175 176 172 174 161 167 168 175 175 177 177 173 174 163 127 87 89 47 37 33 29 13 8 7 14 16 12
247 188 177 249 264 260 264 222 249 206 188 179 174 176 179 181 180 185 184 181 180 179 179 176 176 175 174 169 157 142 130 148 146 88 72 76 72 66 41 39 44 36 22 15 17 17 10 9 8
250 177 173 254 255 272 286 224 229 245 187 186 186 181 180 180 178 181 184 182 180 181 178 176 176 173 168 158 118 38 3 6 18 36 34 60 50 51 52 42 32 28 25 23 18 12 12 13 16
226 256 251 245 248 212 265 223 241 197 183 184 187 181 178 175 173 173 177 180 180 179 176 175 174 169 161 154 141 134 111 85 42 36 44 39 48 54 48 33 30 33 29 19 13 18 20 23 20
251 258 254 250 246 264 260 248 241 302 187 198 195 188 184 178 176 176 175 176 179 177 176 175 173 171 168 162 157 141 130 64 33 47 57 60 52 59 58 46 36 39 32 26 22 19 19 20 20
243 254 264 261 257 252 212 207 250 290 204 199 200 193 190 185 182 183 180 180 180 182 184 186 184 180 179 177 173 170 153 122 85 70 64 62 66 60 55 46 39 36 31 30 28 27 29 28 27
240 241 252 252 253 241 264 252 244 290 194 198 198 198 194 191 188 185 182 182 184 184 188 195 191 187 183 186 184 176 170 157 138 104 82 69 66 57 57 50 39 31 28 24 26 32 28 28 27
231 229 247 250 255 257 267 263 270 252 235 272 292 266 197 194 192 192 187 183 183 187 195 198 196 190 190 182 181 178 176 169 163 144 87 76 70 44 23 29 30 22 21 28 30 26 20 15 14
237 241 249 257 266 260 257 261 266 266 271 294 202 229 192 188 191 195 193 192 188 185 186 186 188 188 187 187 185 187 186 188 186 182 207 356 13 19 5 16 29 25 28 32 23 16 11 8 5
244 243 246 250 250 251 259 262 269 279 279 289 283 203 200 198 199 193 192 192 190 189 188 187 186 189 190 190 191 191 192 188 201 198 226 280 338 347 359 2 5 7 11 7 3 5 9 2 360
242 242 248 254 253 253 254 253 260 261 261 275 275 258 233 207 196 190 186 187 188 189 188 189 190 191 192 195 197 198 200 204 209 242 260 238 272 303 321 335 342 345 352 359 357 354 352 352 350
246 246 246 248 251 258 259 257 275 261 261 273 277 281 289 236 190 187 183 183 184 188 189 191 193 195 198 199 202 207 208 209 217 225 233 269 238 300 311 319 318 326 336 338 347 339 342 344 343